Hulianwang W. Digui 16-04

operational
NORAD ID: 67062 Int'l Des: 2025-295 Owner: ZXW Country: CN Constellation: xingwang
LEOCIRCULAR

About Hulianwang W. Digui 16-04

Description loading...

Live Position

Loading 3D Globe...

Upcoming Passes

Altitude History

Altitude vs Time

uPlot chart will show altitude changes over time

Two-Line Element Set

1 67062U 25295D 25346.21278330 -.00000151 00000-0 37539-5 0 9990
2 67062 50.0052 14.4731 0012497 251.2247 108.7311 14.25916921 46
Epoch: Dec 12, 2025 • Age: 46 hours

Current Status

Altitude 804.2 km
Velocity 7.45 km/s
Sub-Earth Point 2.15°N, 51.25°E
Launch Date Dec 11, 2025
Age 3 days
Type other

Technical Details

Classification Payload
Mass 800.00 kg
Dry Mass 800.00 kg
Total Mass 800.00 kg
Length 3.00 m
Diameter 1.00 m
Span 10.00 m
Shape Box + 2 Pan
Manufacturer YINNT
Bus Type Guowang Y
Phase Status In Orbit
Owner/State ZXW/CN

Large Constellations

Loading constellations...